Decimomannu, Italy

7:21 PM CEST on August 24, 2016 (GMT +0200)
Decimomannu Mil

Weather History for LIED - October, 2012

Change the Weather History Date:

Saturday, October 6, 2012

  Actual Average Record
Temperature  
Mean Temperature 71 °F -  
Max Temperature 82 °F 72 °F 89 °F (2001)
Min Temperature 60 °F 53 °F 48 °F (2008)
Cooling Degree Days 6    
Growing Degree Days 21 (Base 50)    
Moisture  
Dew Point 63 °F    
Average Humidity 77    
Maximum Humidity 89    
Minimum Humidity 48    
Precipitation  
Precipitation 0.00 in 0.07 in - ()
Sea Level Pressure  
Sea Level Pressure 30.11 in    
Wind  
Wind Speed 7 mph ()    
Max Wind Speed 18 mph    
Max Gust Speed -    
Visibility 8.2 miles    
Events      
Averages and records for this station are not official NWS values.
T = Trace of Precipitation, MM = Missing Value Source: Averaged Metar Reports

Daily Weather History Graph

Daily Weather History Graph

Search for Another Location

Airport or City:

Trip Planner

Search our weather history database for the weather conditions in past years. The results will help you decide how hot, cold, wet, or windy it might be!

Date:

Astronomy

Oct. 06, 2012 Rise Set
Actual Time 7:25 AM CEST 6:58 PM CEST
Civil Twilight 6:58 AM CEST 7:25 PM CEST
Nautical Twilight 6:27 AM CEST 7:56 PM CEST
Astronomical Twilight 5:56 AM CEST 8:27 PM CEST
Moon 11:00 PM CEST (10/6) 1:05 PM CEST (10/6)
Length of Visible Light 12h 26m
Length of Day
11h 33m
Waning Gibbous, 68% of the Moon is Illuminated
Oct 6
Waning Gibbous
Oct 8
Last Quarter
Oct 15
New
Oct 22
First Quarter
Oct 29
Full

Hourly Weather History & Observations

Time (CEST) Temp. Heat Index Dew Point Humidity Pressure Visibility Wind Dir Wind Speed Gust Speed Precip Events Conditions
12:55 AM 68.0 °F - 64.4 °F 88% 30.09 in - East 4.6 mph - N/A   Clear
1:55 AM 66.2 °F - 62.6 °F 88% 30.09 in - ENE 4.6 mph - N/A   Clear
2:00 AM 66 °F - 63 °F 85% 30.12 in 12 mi ENE 4.6 mph - -   Scattered Clouds
2:55 AM 64.4 °F - 60.8 °F 88% 30.09 in - ENE 5.8 mph - N/A   Clear
3:55 AM 62.6 °F - 59.0 °F 88% 30.12 in - ENE 6.9 mph - N/A   Clear
4:55 AM 62.6 °F - 59.0 °F 88% 30.09 in - ENE 5.8 mph - N/A   Clear
5:00 AM 62 °F - 59 °F 87% 30.11 in 9 mi ENE 5.8 mph - -   Scattered Clouds
5:55 AM 60.8 °F - 57.2 °F 88% 30.09 in - NE 8.1 mph - N/A   Clear
6:55 AM 60.8 °F - 55.4 °F 82% 30.12 in - NE 8.1 mph - N/A   Clear
7:55 AM 62.6 °F - 57.2 °F 82% 30.12 in 6.2 mi NE 4.6 mph - N/A   Partly Cloudy
8:00 AM 62 °F - 57 °F 80% 30.13 in 12 mi NE 4.6 mph - -   Scattered Clouds
8:55 AM 66.2 °F - 59.0 °F 78% 30.12 in 6.2 mi ENE 6.9 mph - N/A   Partly Cloudy
9:55 AM 73.4 °F - 66.2 °F 78% 30.12 in 6.2 mi SE 11.5 mph - N/A   Partly Cloudy
10:55 AM 69.8 °F - 57.2 °F 64% 30.12 in 6.2 mi SSE 11.5 mph - N/A   Partly Cloudy
11:00 AM 69 °F - 57 °F 56% 30.14 in 12 mi SSE 11.5 mph - -   Scattered Clouds
11:55 AM 80.6 °F 82.7 °F 66.2 °F 61% 30.12 in 6.2 mi SSE 15.0 mph - N/A   Partly Cloudy
1:55 PM 82.4 °F 84.6 °F 66.2 °F 58% 30.09 in 6.2 mi SSE 18.4 mph - N/A   Partly Cloudy
2:00 PM 82 °F - 66 °F 48% 30.12 in 12 mi SSE 18.4 mph - -   Scattered Clouds
3:55 PM 80.6 °F 81.8 °F 62.6 °F 54% 30.09 in - SE 16.1 mph - N/A   Clear
4:55 PM 78.8 °F - 68.0 °F 69% 30.06 in - SSE 18.4 mph - N/A   Clear
5:00 PM 79 °F - 68 °F 62% 30.09 in 12 mi SSE 18.4 mph - -  
5:55 PM 77.0 °F - 69.8 °F 78% 30.09 in - SSE 13.8 mph - N/A   Clear
6:55 PM 75.2 °F - 71.6 °F 89% 30.09 in - SE 6.9 mph - N/A   Clear
7:55 PM 73.4 °F - 66.2 °F 78% 30.09 in - SSE 5.8 mph - N/A   Clear
9:55 PM 69.8 °F - 66.2 °F 88% 30.12 in 6.2 mi NE 4.6 mph - N/A   Partly Cloudy
10:55 PM 69.8 °F - 62.6 °F 78% 30.12 in 6.2 mi ENE 1.2 mph - N/A   Partly Cloudy
11:00 PM 70 °F - 63 °F 71% 30.13 in 7 mi ENE 1.2 mph - -   Partly Cloudy
11:55 PM 68.0 °F - 64.4 °F 88% 30.12 in 6.2 mi WNW 1.2 mph - N/A   Scattered Clouds